Regional Weather Roundup
Issued by NWS Spokane, WA

Home | Current Version | Previous Version | Text Only | Print | Product List | Glossary On
Versions: 1 2 3 4 5 6 7 8 9 10 11 12 13 14 15 16 17 18 19 20 21 22 23 24 25 26 27 28 29 30 31 32 33 34 35 36 37 38 39 40 41 42 43 44 45 46 47 48 49 50
000
NZUS01 KOTX 241900
RWROTX
EASTERN WASHINGTON/NORTHERN IDAHO ROUNDUP
NATIONAL WEATHER SERVICE, SPOKANE WA
1200 PM PDT FRI OCT 24 2014

Note: "fair" indicated few or no clouds below 12,000 feet with no
significant weather and/or obstructions to visibility.

...NORTHEAST WASHINGTON AND NORTHERN IDAHO PANHANDLE...

CITY           SKY/WX    TMP DP  RH WIND       PRES   REMARKS
SPOKANE INTL   CLOUDY    51  42  71 S6        30.09F
SPOKANE DOWNTO CLOUDY    54  42  64 CALM      30.10F
COEUR D ALENE  CLOUDY    52  41  66 S7        30.09F
DEER PARK      PTSUNNY   50  41  71 CALM      30.11F

...SOUTHEAST WASHINGTON AND SOUTHERN IDAHO PANHANDLE...

CITY           SKY/WX    TMP DP  RH WIND       PRES   REMARKS
WALLA WALLA    CLOUDY    59  47  64 N7        30.05S
PULLMAN/MOSCOW CLOUDY    52  46  80 E12       30.10F
LOWELL           N/A     52  49  89 CALM      30.14F

...COLUMBIA BASIN...

CITY           SKY/WX    TMP DP  RH WIND       PRES   REMARKS
EPHRATA        CLOUDY    51  42  71 NE9       30.07F
MOSES LAKE     CLOUDY    53  42  66 NE5       30.08F
TRI CITIES     CLOUDY    57  49  74 NW6       30.06F
HERMISTON      CLOUDY    54  48  80 NW6       30.03F
PENDLETON      CLOUDY    55  48  77 N5        30.03F

...EAST SLOPES CASCADES...

CITY           SKY/WX    TMP DP  RH WIND       PRES   REMARKS
THE DALLES     CLOUDY    53  47  79 CALM      30.04F
YAKIMA         CLOUDY    51  40  65 W5        30.07F
ELLENSBURG     CLOUDY    50  39  66 CALM      30.06F
WENATCHEE      CLOUDY    50  39  66 W6        30.07F
OMAK           PTSUNNY   52  37  56 N6        30.10F

...SOUTHERN BRITISH COLUMBIA...

CITY           SKY/WX    TMP DP  RH WIND       PRES   REMARKS

...WESTERN MONTANA...

CITY           SKY/WX    TMP DP  RH WIND       PRES   REMARKS
MISSOULA       CLOUDY    50  42  74 SE9       30.14F

...NEIGHBORING CITIES...

CITY           SKY/WX    TMP DP  RH WIND       PRES   REMARKS
SEATTLE        CLOUDY    57  47  69 CALM      30.03F



USA.gov is the U.S. government's official web portal to all federal, state and local government web resources and services.